Location: Alsip
(41.6689°N, 87.7387°W)
Time: 13:53:05
(UTC+00:00)

Resurs 1-4 Rocket - Pass Details

Date: 14 July 2020
Orbit: 800 x 814 km, 98.6° (Epoch: 04 August)

Event Time Altitude Azimuth Distance (km) Brightness Sun altitude
Rises 08:07:16 0° 6° (N) 3,345 6.4 -19.9°
Reaches altitude 10° 08:09:43 10° 0° (N) 2,407 5.4 -19.7°
Maximum altitude 08:14:42 43° 291° (WNW) 1,129 2.7 -19.2°
Enters shadow 08:16:39 31° 244° (WSW) 1,399 2.9 -19.0°
